GFSNW_500_temp_018.txt.gz
Temp
-17 -19 -21 -22 -23 -24 -24 -24 -24 -22 -22 -22 -22 -22 -21 -21 -20 -19 -19 -19 -19 -19 -18 -18 -17 -17 -17 -17 -16 -16 -16 -16 -16 -16 -16 -16 -15 -15 -15 -15 -15 -15 -15 -11
-17 -19 -21 -21 -22 -23 -23 -22 -22 -22 -21 -22 -21 -21 -19 -20 -20 -19 -19 -19 -19 -18 -18 -18 -17 -17 -17 -17 -17 -16 -16 -16 -16 -16 -16 -15 -15 -15 -15 -15 -15 -14 -15 -14
-17 -19 -21 -21 -21 -21 -22 -22 -21 -22 -22 -21 -21 -20 -20 -20 -20 -19 -19 -19 -19 -18 -18 -18 -18 -18 -17 -17 -16 -16 -16 -16 -16 -16 -16 -16 -15 -15 -15 -15 -14 -14 -15 -13
-17 -18 -20 -20 -21 -20 -21 -21 -21 -21 -21 -21 -20 -20 -20 -20 -20 -19 -19 -19 -19 -19 -19 -18 -18 -18 -17 -17 -16 -16 -16 -17 -16 -16 -16 -16 -15 -15 -15 -14 -15 -15 -15 -16
-17 -17 -19 -20 -20 -20 -21 -21 -21 -20 -20 -20 -20 -20 -20 -20 -20 -20 -20 -19 -19 -19 -19 -18 -18 -17 -17 -17 -17 -16 -16 -17 -16 -16 -16 -15 -15 -16 -15 -15 -14 -14 -15 -16
-17 -18 -18 -20 -20 -20 -20 -20 -20 -20 -20 -20 -20 -19 -20 -20 -20 -20 -19 -19 -19 -19 -19 -18 -18 -18 -17 -17 -17 -17 -17 -17 -17 -16 -15 -15 -15 -15 -15 -14 -15 -14 -14 -16
-18 -18 -18 -19 -20 -20 -19 -20 -20 -20 -20 -20 -20 -19 -19 -19 -19 -20 -19 -19 -19 -18 -18 -18 -18 -18 -17 -17 -17 -17 -17 -17 -17 -16 -15 -15 -15 -15 -15 -15 -15 -15 -14 -16
-18 -18 -18 -18 -19 -20 -19 -19 -19 -20 -20 -20 -20 -19 -19 -19 -19 -19 -19 -19 -19 -18 -18 -17 -17 -17 -17 -17 -17 -17 -17 -17 -16 -16 -16 -16 -16 -15 -15 -15 -15 -16 -15 -16
-18 -17 -18 -18 -18 -19 -19 -19 -19 -19 -19 -19 -20 -19 -19 -20 -19 -19 -19 -19 -19 -18 -18 -18 -18 -18 -17 -17 -17 -17 -17 -17 -17 -16 -16 -16 -16 -15 -16 -15 -16 -16 -16 -16
-17 -17 -18 -18 -19 -19 -18 -19 -19 -19 -19 -19 -19 -19 -20 -19 -19 -19 -19 -19 -19 -19 -19 -18 -18 -17 -17 -17 -17 -17 -17 -17 -17 -16 -16 -16 -16 -16 -16 -16 -16 -16 -16 -16
-17 -17 -17 -18 -18 -19 -19 -19 -19 -19 -19 -19 -19 -19 -19 -19 -19 -19 -20 -20 -20 -19 -19 -18 -18 -18 -17 -17 -17 -17 -17 -17 -16 -16 -16 -16 -16 -16 -16 -16 -16 -16 -16 -16
-17 -16 -17 -17 -17 -18 -18 -19 -18 -19 -19 -19 -19 -19 -19 -20 -20 -20 -20 -20 -20 -19 -19 -19 -18 -18 -17 -17 -17 -17 -17 -16 -16 -16 -16 -16 -16 -16 -16 -16 -16 -16 -16 -16
-17 -17 -17 -17 -17 -17 -18 -18 -19 -20 -20 -19 -19 -20 -20 -20 -21 -21 -21 -20 -20 -20 -19 -19 -18 -18 -17 -17 -16 -16 -16 -16 -16 -16 -16 -15 -15 -16 -16 -16 -16 -16 -16 -16
-17 -17 -17 -17 -17 -17 -17 -18 -19 -22 -21 -20 -20 -20 -20 -20 -21 -21 -21 -20 -20 -20 -19 -19 -19 -18 -17 -17 -16 -16 -16 -16 -16 -16 -16 -16 -16 -16 -16 -16 -16 -16 -16 -16
-17 -17 -18 -17 -17 -17 -18 -20 -21 -23 -22 -21 -20 -20 -20 -20 -21 -21 -21 -21 -20 -20 -20 -19 -19 -18 -18 -17 -17 -17 -16 -16 -15 -15 -16 -16 -16 -16 -16 -16 -16 -16 -16 -16
-18 -17 -18 -17 -17 -18 -20 -22 -23 -23 -22 -21 -21 -20 -20 -21 -21 -21 -21 -21 -20 -20 -20 -19 -19 -19 -18 -17 -18 -17 -16 -15 -15 -16 -16 -16 -16 -16 -16 -16 -16 -16 -17 -17
-18 -17 -18 -17 -18 -20 -22 -23 -24 -22 -22 -21 -21 -20 -20 -21 -21 -21 -21 -21 -20 -20 -20 -20 -19 -19 -18 -18 -17 -16 -15 -15 -15 -16 -17 -17 -17 -17 -17 -17 -17 -17 -17 -17
-18 -18 -17 -17 -19 -22 -23 -23 -23 -22 -22 -21 -21 -20 -20 -20 -21 -21 -21 -21 -21 -20 -20 -20 -19 -19 -18 -17 -16 -16 -16 -16 -16 -17 -18 -18 -18 -18 -17 -17 -17 -17 -17 -17
-18 -18 -17 -18 -22 -23 -22 -23 -22 -22 -22 -21 -21 -21 -21 -21 -21 -21 -21 -21 -20 -20 -20 -20 -19 -19 -18 -17 -17 -17 -17 -17 -17 -17 -18 -18 -18 -18 -17 -17 -18 -17 -17 -17
-18 -18 -17 -20 -22 -22 -23 -23 -22 -22 -21 -21 -21 -21 -21 -20 -20 -21 -21 -21 -20 -20 -21 -20 -20 -19 -18 -18 -18 -18 -18 -17 -17 -17 -17 -18 -18 -17 -17 -17 -17 -17 -17 -17
-18 -18 -18 -21 -21 -22 -23 -22 -22 -21 -21 -21 -21 -21 -21 -21 -20 -21 -21 -21 -21 -21 -21 -21 -20 -19 -18 -18 -18 -17 -17 -17 -17 -17 -17 -17 -17 -17 -17 -18 -18 -18 -18 -18
-19 -19 -20 -22 -22 -22 -22 -22 -21 -21 -21 -21 -21 -20 -21 -21 -20 -20 -21 -21 -21 -21 -21 -21 -20 -19 -18 -18 -18 -18 -17 -17 -17 -17 -18 -17 -17 -17 -17 -17 -18 -18 -18 -18
-19 -19 -21 -21 -21 -21 -21 -21 -21 -21 -21 -21 -21 -21 -21 -21 -20 -20 -21 -21 -21 -21 -21 -20 -20 -20 -19 -18 -18 -18 -17 -17 -17 -17 -17 -17 -17 -17 -17 -17 -18 -18 -18 -18
-19 -20 -21 -21 -21 -21 -21 -21 -21 -21 -21 -21 -21 -21 -21 -21 -20 -20 -21 -21 -21 -20 -20 -20 -20 -20 -20 -19 -18 -18 -17 -17 -17 -17 -17 -17 -17 -17 -17 -17 -17 -17 -18 -18
-20 -20 -20 -21 -21 -21 -21 -21 -21 -21 -21 -21 -21 -21 -21 -21 -21 -20 -21 -21 -21 -21 -20 -20 -20 -20 -20 -20 -19 -19 -18 -18 -18 -17 -17 -17 -17 -17 -17 -17 -17 -18 -18 -18
-20 -20 -20 -21 -21 -21 -21 -21 -21 -21 -21 -21 -21 -21 -21 -21 -21 -21 -21 -21 -21 -21 -21 -21 -21 -20 -20 -20 -20 -20 -19 -19 -18 -18 -18 -18 -18 -18 -18 -18 -18 -18 -18 -18
-20 -20 -20 -20 -21 -22 -21 -21 -22 -22 -22 -21 -21 -21 -21 -21 -21 -21 -21 -21 -21 -21 -21 -21 -21 -21 -21 -21 -21 -21 -20 -19 -19 -19 -19 -19 -18 -18 -18 -18 -18 -18 -18 -18

GFSNW_500_temp_021.txt.gz
Temp
-17 -17 -19 -20 -20 -21 -20 -21 -21 -22 -22 -22 -21 -21 -21 -20 -20 -20 -19 -18 -18 -18 -18 -18 -18 -18 -17 -17 -17 -17 -16 -16 -17 -16 -16 -16 -16 -15 -15 -15 -14 -14 -14 -13
-17 -17 -19 -19 -20 -20 -20 -21 -21 -21 -21 -21 -21 -21 -20 -20 -19 -19 -20 -19 -19 -19 -18 -18 -17 -17 -17 -17 -17 -17 -17 -16 -16 -16 -16 -16 -15 -15 -15 -14 -14 -15 -14 -14
-17 -17 -18 -19 -20 -20 -21 -21 -20 -20 -20 -20 -20 -20 -20 -20 -19 -19 -19 -19 -19 -19 -18 -18 -18 -17 -17 -17 -17 -17 -16 -16 -17 -17 -16 -15 -15 -15 -15 -15 -14 -14 -15 -13
-17 -18 -17 -19 -19 -20 -21 -20 -20 -19 -19 -19 -19 -19 -19 -20 -20 -20 -19 -19 -19 -19 -18 -18 -18 -18 -18 -17 -17 -17 -17 -17 -17 -16 -16 -16 -15 -15 -15 -15 -15 -14 -14 -14
-17 -18 -18 -18 -19 -19 -19 -20 -20 -19 -19 -19 -19 -19 -19 -19 -19 -19 -19 -19 -19 -19 -18 -18 -18 -18 -17 -17 -17 -17 -17 -17 -17 -16 -16 -16 -16 -15 -15 -15 -15 -15 -14 -14
-17 -18 -18 -18 -18 -19 -19 -19 -19 -19 -19 -19 -19 -19 -19 -19 -19 -19 -19 -19 -19 -19 -19 -18 -18 -18 -17 -17 -17 -17 -17 -17 -17 -17 -16 -16 -16 -16 -16 -16 -15 -15 -15 -15
-17 -17 -18 -18 -18 -18 -19 -19 -19 -19 -19 -19 -19 -19 -19 -19 -19 -19 -19 -19 -19 -19 -19 -18 -18 -18 -17 -17 -17 -17 -17 -17 -17 -17 -16 -16 -16 -16 -16 -15 -15 -15 -15 -15
-17 -18 -17 -18 -18 -18 -18 -19 -19 -19 -20 -20 -19 -19 -19 -19 -19 -19 -19 -18 -18 -18 -18 -18 -18 -17 -17 -17 -17 -17 -17 -17 -17 -17 -17 -16 -16 -16 -16 -16 -16 -16 -16 -16
-17 -18 -18 -18 -18 -18 -18 -18 -19 -19 -19 -19 -20 -19 -20 -19 -19 -19 -19 -19 -19 -18 -18 -17 -18 -17 -17 -17 -17 -17 -17 -17 -17 -17 -17 -16 -16 -16 -16 -16 -16 -16 -16 -16
-17 -17 -18 -18 -18 -18 -18 -18 -18 -18 -19 -20 -19 -19 -19 -19 -19 -19 -19 -19 -19 -18 -18 -17 -17 -17 -17 -17 -17 -17 -17 -17 -17 -17 -17 -16 -16 -16 -16 -16 -16 -16 -16 -16
-17 -17 -17 -18 -18 -18 -18 -18 -18 -18 -18 -19 -20 -19 -19 -19 -19 -19 -19 -19 -19 -19 -18 -18 -18 -17 -17 -17 -17 -17 -17 -17 -17 -17 -17 -16 -16 -16 -16 -16 -16 -16 -16 -16
-18 -17 -17 -17 -18 -18 -18 -18 -18 -18 -18 -19 -19 -20 -20 -20 -20 -20 -20 -20 -20 -19 -19 -19 -18 -18 -17 -17 -17 -17 -17 -17 -17 -17 -16 -16 -16 -16 -16 -16 -15 -16 -16 -16
-17 -17 -17 -17 -17 -17 -17 -17 -17 -17 -17 -18 -18 -20 -20 -20 -20 -20 -20 -20 -20 -20 -20 -20 -19 -19 -18 -17 -17 -17 -17 -16 -17 -16 -16 -16 -16 -16 -16 -16 -15 -16 -16 -16
-18 -18 -18 -18 -18 -18 -17 -17 -17 -17 -18 -19 -20 -20 -20 -20 -20 -21 -21 -21 -21 -21 -20 -20 -20 -19 -18 -18 -17 -17 -17 -17 -16 -16 -16 -16 -16 -16 -16 -16 -16 -15 -16 -16
-18 -18 -18 -18 -18 -18 -17 -17 -18 -19 -21 -22 -22 -22 -21 -20 -20 -21 -21 -21 -21 -21 -21 -20 -20 -19 -19 -18 -18 -18 -16 -17 -16 -16 -16 -16 -16 -16 -16 -16 -16 -16 -16 -17
-18 -18 -18 -18 -18 -17 -17 -19 -21 -23 -24 -24 -22 -22 -21 -21 -21 -21 -21 -21 -21 -21 -21 -20 -20 -20 -19 -19 -19 -18 -16 -16 -15 -16 -16 -16 -16 -16 -16 -17 -17 -17 -17 -17
-18 -18 -18 -18 -18 -17 -18 -22 -23 -24 -24 -23 -22 -22 -21 -21 -21 -21 -21 -21 -21 -21 -20 -20 -20 -20 -19 -19 -18 -18 -17 -17 -17 -16 -16 -16 -17 -17 -17 -17 -17 -17 -17 -17
-19 -18 -18 -18 -17 -18 -21 -23 -24 -23 -22 -21 -22 -21 -21 -21 -21 -21 -21 -21 -21 -21 -21 -21 -20 -20 -19 -19 -18 -18 -17 -17 -17 -16 -16 -17 -17 -17 -17 -17 -17 -17 -17 -17
-19 -19 -19 -18 -19 -21 -23 -23 -23 -23 -22 -22 -21 -21 -21 -21 -21 -21 -21 -21 -21 -21 -21 -21 -20 -20 -19 -18 -18 -18 -18 -17 -16 -16 -17 -17 -17 -17 -17 -17 -18 -18 -17 -17
-19 -19 -18 -20 -22 -22 -23 -23 -23 -23 -22 -22 -21 -21 -21 -21 -21 -21 -21 -21 -21 -21 -21 -20 -20 -20 -19 -19 -18 -18 -18 -17 -17 -17 -17 -17 -17 -18 -18 -17 -17 -17 -17 -18
-19 -19 -19 -21 -21 -22 -22 -22 -22 -22 -21 -21 -21 -21 -21 -21 -21 -21 -21 -21 -21 -21 -21 -20 -20 -20 -20 -19 -19 -19 -18 -18 -18 -18 -18 -18 -18 -18 -17 -18 -17 -17 -18 -17
-20 -20 -20 -21 -21 -21 -22 -21 -22 -21 -21 -21 -21 -21 -21 -21 -21 -21 -21 -21 -21 -21 -21 -21 -21 -20 -20 -19 -19 -19 -18 -18 -18 -18 -18 -18 -18 -17 -17 -17 -17 -17 -18 -18
-20 -20 -21 -21 -21 -21 -21 -21 -21 -21 -21 -21 -21 -21 -21 -21 -21 -21 -21 -21 -21 -21 -21 -21 -20 -20 -20 -20 -19 -18 -18 -18 -18 -18 -17 -17 -17 -17 -17 -17 -17 -18 -18 -18
-20 -20 -21 -21 -21 -21 -21 -21 -21 -21 -21 -21 -21 -21 -21 -21 -21 -21 -21 -21 -21 -21 -21 -21 -21 -20 -20 -20 -20 -19 -18 -18 -18 -18 -17 -17 -17 -17 -17 -17 -17 -18 -18 -18
-20 -21 -20 -21 -21 -21 -21 -21 -21 -21 -21 -21 -21 -21 -21 -21 -21 -21 -21 -21 -21 -21 -21 -21 -21 -21 -21 -20 -20 -20 -19 -19 -19 -18 -17 -18 -18 -17 -17 -18 -18 -18 -18 -17
-21 -21 -20 -21 -21 -22 -22 -21 -21 -21 -21 -21 -21 -21 -21 -21 -21 -21 -21 -21 -21 -21 -21 -21 -21 -21 -21 -21 -21 -20 -20 -19 -19 -19 -19 -18 -18 -18 -18 -18 -18 -18 -18 -18
-22 -21 -21 -21 -21 -21 -22 -21 -21 -22 -22 -21 -21 -21 -21 -21 -21 -21 -21 -22 -22 -21 -21 -21 -21 -21 -21 -21 -21 -21 -21 -21 -20 -19 -19 -19 -19 -19 -18 -18 -18 -18 -18 -18

GFSNW_500_temp_024.txt.gz
Temp
-17 -17 -18 -19 -19 -20 -20 -20 -20 -20 -20 -20 -19 -19 -19 -20 -20 -20 -19 -19 -19 -19 -19 -19 -18 -18 -18 -17 -17 -17 -17 -17 -17 -16 -16 -16 -16 -16 -15 -15 -15 -15 -14 -14
-17 -18 -19 -18 -20 -20 -20 -20 -20 -19 -19 -19 -19 -20 -19 -19 -19 -19 -19 -19 -18 -19 -18 -18 -18 -18 -18 -17 -17 -17 -17 -17 -16 -16 -16 -16 -16 -16 -15 -15 -15 -15 -14 -14
-17 -17 -17 -19 -19 -19 -20 -20 -19 -19 -19 -19 -19 -19 -19 -19 -19 -19 -19 -18 -19 -18 -18 -18 -18 -17 -17 -17 -17 -17 -17 -17 -16 -16 -16 -16 -16 -15 -15 -15 -15 -14 -15 -14
-17 -17 -17 -17 -18 -19 -19 -19 -19 -19 -19 -19 -19 -19 -19 -19 -19 -19 -19 -19 -19 -18 -18 -18 -18 -17 -17 -17 -17 -17 -17 -17 -17 -16 -16 -16 -16 -16 -16 -16 -15 -15 -15 -14
-17 -17 -17 -17 -17 -18 -19 -19 -19 -19 -19 -19 -19 -19 -19 -19 -19 -19 -19 -19 -19 -19 -19 -18 -18 -18 -18 -18 -17 -17 -17 -17 -17 -16 -16 -16 -16 -16 -16 -15 -15 -15 -15 -15
-17 -17 -18 -18 -17 -18 -17 -18 -19 -19 -19 -19 -19 -19 -19 -19 -19 -19 -19 -19 -19 -19 -19 -19 -19 -18 -18 -17 -17 -17 -17 -17 -16 -16 -16 -16 -16 -16 -15 -16 -16 -15 -15 -15
-17 -18 -18 -18 -18 -18 -18 -18 -18 -19 -19 -19 -19 -19 -19 -19 -19 -19 -19 -19 -19 -19 -19 -19 -18 -18 -18 -18 -17 -17 -17 -17 -17 -17 -16 -16 -16 -16 -16 -16 -15 -15 -15 -15
-17 -18 -18 -18 -18 -18 -18 -18 -18 -18 -19 -19 -19 -19 -19 -19 -19 -19 -18 -18 -18 -18 -19 -18 -18 -18 -18 -18 -17 -17 -17 -17 -17 -17 -17 -17 -17 -16 -16 -16 -16 -16 -16 -16
-17 -18 -18 -18 -18 -18 -18 -18 -18 -18 -18 -19 -19 -19 -20 -20 -19 -19 -19 -19 -18 -18 -18 -18 -18 -18 -18 -17 -17 -17 -17 -17 -17 -17 -17 -17 -17 -16 -16 -16 -16 -16 -16 -16
-17 -17 -18 -18 -18 -18 -18 -18 -19 -18 -19 -18 -18 -19 -19 -20 -20 -20 -19 -19 -19 -19 -18 -18 -17 -18 -18 -17 -17 -17 -17 -17 -17 -17 -17 -17 -17 -16 -16 -16 -16 -16 -16 -16
-17 -17 -18 -18 -18 -19 -19 -19 -19 -19 -19 -19 -18 -18 -19 -19 -20 -20 -20 -19 -19 -19 -19 -18 -18 -18 -18 -17 -17 -17 -17 -17 -17 -17 -17 -17 -16 -16 -16 -16 -16 -16 -16 -16
-17 -17 -18 -18 -18 -18 -18 -19 -19 -19 -18 -19 -18 -18 -18 -19 -19 -19 -19 -20 -19 -19 -19 -19 -18 -18 -18 -18 -18 -17 -17 -17 -17 -17 -17 -17 -16 -16 -16 -16 -16 -16 -16 -16
-17 -17 -18 -18 -18 -18 -18 -18 -18 -18 -18 -18 -18 -19 -19 -19 -20 -20 -20 -20 -20 -20 -19 -19 -19 -19 -19 -18 -18 -18 -17 -17 -17 -17 -17 -16 -16 -16 -16 -16 -16 -16 -16 -16
-18 -18 -18 -18 -18 -18 -18 -18 -18 -18 -17 -17 -18 -18 -18 -19 -20 -20 -21 -21 -20 -20 -20 -20 -20 -20 -19 -19 -18 -18 -17 -17 -17 -17 -17 -17 -16 -16 -16 -16 -16 -16 -16 -16
-18 -18 -18 -18 -18 -18 -18 -18 -18 -18 -18 -19 -20 -20 -21 -21 -21 -21 -21 -21 -21 -20 -21 -21 -21 -20 -20 -19 -19 -19 -17 -17 -17 -17 -16 -16 -16 -16 -16 -16 -16 -16 -16 -17
-17 -18 -19 -19 -18 -18 -18 -17 -18 -21 -23 -23 -24 -24 -23 -23 -22 -22 -21 -22 -21 -21 -21 -21 -21 -20 -20 -20 -20 -19 -18 -17 -17 -17 -16 -16 -17 -16 -16 -16 -16 -16 -17 -17
-19 -19 -19 -19 -18 -18 -18 -19 -22 -23 -23 -24 -23 -24 -23 -22 -22 -22 -21 -22 -22 -21 -21 -21 -21 -21 -20 -20 -19 -19 -18 -17 -17 -17 -17 -17 -16 -16 -16 -16 -16 -17 -17 -17
-19 -19 -19 -19 -18 -19 -21 -22 -23 -23 -23 -22 -22 -22 -22 -22 -22 -22 -21 -21 -21 -21 -21 -21 -21 -20 -20 -20 -19 -19 -18 -18 -17 -17 -17 -17 -16 -17 -16 -16 -17 -17 -17 -17
-20 -19 -19 -19 -20 -22 -22 -22 -22 -22 -22 -22 -22 -22 -22 -22 -22 -21 -21 -21 -21 -21 -21 -21 -21 -20 -20 -20 -19 -19 -18 -18 -17 -17 -17 -17 -17 -17 -17 -17 -17 -17 -18 -17
-20 -20 -20 -21 -21 -21 -21 -22 -22 -22 -22 -22 -22 -21 -21 -21 -21 -21 -21 -21 -21 -21 -21 -21 -21 -20 -20 -20 -19 -19 -18 -18 -18 -17 -17 -17 -17 -18 -17 -17 -17 -17 -18 -18
-20 -20 -21 -22 -22 -22 -21 -21 -21 -22 -22 -22 -22 -21 -21 -21 -21 -21 -21 -21 -21 -21 -21 -21 -21 -21 -20 -20 -20 -19 -19 -18 -18 -18 -18 -18 -18 -18 -18 -17 -17 -18 -18 -18
-20 -20 -21 -22 -22 -21 -21 -21 -21 -21 -21 -21 -21 -21 -21 -21 -21 -21 -21 -21 -21 -21 -21 -21 -21 -21 -20 -20 -20 -19 -19 -19 -18 -18 -18 -18 -18 -18 -18 -18 -18 -18 -18 -18
-21 -20 -21 -21 -22 -21 -21 -21 -21 -21 -21 -21 -21 -21 -21 -21 -21 -21 -21 -21 -21 -21 -21 -21 -21 -21 -21 -20 -20 -20 -19 -19 -18 -18 -18 -18 -18 -18 -18 -18 -18 -18 -18 -18
-21 -21 -21 -21 -21 -22 -21 -21 -21 -21 -21 -21 -21 -21 -21 -21 -21 -21 -21 -21 -21 -21 -21 -21 -21 -21 -21 -20 -20 -20 -19 -19 -19 -18 -18 -18 -18 -18 -17 -17 -17 -18 -18 -18
-21 -21 -21 -21 -22 -22 -22 -22 -21 -21 -21 -21 -21 -21 -21 -21 -21 -21 -21 -21 -21 -21 -21 -21 -21 -21 -21 -21 -20 -20 -20 -19 -19 -19 -19 -18 -19 -18 -18 -18 -18 -18 -18 -18
-21 -21 -22 -22 -22 -22 -22 -22 -22 -21 -21 -22 -22 -21 -21 -21 -21 -21 -21 -21 -21 -21 -21 -21 -21 -21 -21 -21 -21 -21 -20 -20 -20 -19 -19 -19 -19 -19 -18 -18 -18 -18 -18 -18
-22 -22 -22 -22 -22 -22 -22 -22 -22 -22 -22 -22 -22 -22 -22 -21 -21 -21 -22 -22 -22 -22 -21 -21 -21 -21 -21 -21 -21 -21 -21 -21 -20 -20 -20 -20 -19 -19 -19 -19 -19 -19 -19 -19

GFSNW_500_temp_030.txt.gz
Temp
-17 -17 -17 -17 -18 -19 -19 -19 -19 -18 -19 -19 -19 -19 -19 -19 -20 -20 -20 -19 -19 -19 -19 -19 -19 -19 -19 -18 -18 -18 -18 -18 -18 -17 -17 -17 -17 -17 -17 -16 -16 -16 -15 -15
-17 -17 -17 -17 -17 -19 -19 -19 -19 -19 -18 -19 -19 -19 -19 -19 -19 -19 -19 -19 -19 -19 -19 -19 -19 -19 -19 -19 -19 -18 -18 -18 -18 -18 -17 -17 -17 -17 -16 -16 -16 -16 -16 -15
-17 -17 -17 -17 -17 -18 -19 -19 -19 -19 -19 -19 -19 -19 -19 -19 -19 -18 -18 -18 -19 -19 -19 -19 -18 -18 -18 -18 -18 -18 -18 -18 -17 -17 -17 -17 -16 -16 -16 -16 -16 -16 -16 -15
-18 -17 -17 -17 -17 -17 -18 -19 -19 -20 -19 -19 -19 -19 -19 -18 -18 -18 -18 -18 -18 -19 -19 -18 -18 -18 -18 -18 -18 -18 -17 -17 -17 -17 -17 -17 -16 -16 -16 -16 -16 -16 -15 -15
-18 -18 -17 -18 -17 -17 -18 -18 -19 -19 -19 -20 -20 -19 -19 -19 -18 -18 -18 -18 -19 -19 -18 -18 -18 -18 -18 -18 -18 -17 -17 -17 -17 -17 -17 -17 -17 -16 -16 -16 -16 -16 -15 -15
-18 -18 -17 -17 -18 -18 -18 -18 -18 -19 -19 -19 -20 -20 -20 -20 -19 -19 -19 -18 -18 -19 -19 -18 -18 -18 -18 -18 -18 -17 -17 -17 -17 -16 -17 -17 -17 -16 -16 -16 -16 -16 -16 -15
-18 -18 -18 -17 -18 -18 -18 -18 -18 -18 -18 -19 -19 -20 -20 -20 -20 -19 -19 -19 -19 -18 -18 -19 -18 -18 -18 -18 -18 -18 -17 -17 -17 -17 -17 -17 -17 -17 -17 -17 -16 -16 -16 -15
-18 -18 -18 -18 -17 -18 -18 -18 -18 -18 -18 -18 -18 -19 -19 -20 -20 -20 -19 -19 -19 -19 -18 -18 -19 -19 -18 -18 -18 -18 -17 -17 -17 -17 -17 -17 -17 -17 -17 -17 -16 -16 -16 -16
-18 -18 -18 -18 -18 -18 -18 -18 -18 -18 -18 -18 -18 -18 -19 -19 -20 -20 -20 -19 -19 -19 -19 -18 -18 -18 -19 -19 -18 -18 -18 -18 -17 -17 -17 -17 -17 -17 -17 -17 -16 -16 -16 -16
-19 -18 -18 -18 -18 -18 -18 -18 -18 -18 -18 -18 -19 -19 -18 -19 -19 -20 -20 -20 -20 -19 -19 -19 -19 -18 -18 -18 -18 -18 -18 -18 -18 -17 -17 -18 -18 -17 -17 -17 -16 -16 -16 -16
-19 -19 -18 -18 -18 -18 -18 -18 -18 -18 -19 -19 -18 -19 -19 -19 -19 -19 -19 -20 -20 -20 -20 -20 -19 -19 -19 -18 -18 -18 -18 -18 -18 -17 -17 -18 -18 -17 -17 -17 -17 -17 -16 -16
-19 -18 -18 -18 -18 -18 -18 -18 -18 -18 -18 -19 -19 -19 -19 -18 -19 -19 -19 -19 -20 -20 -20 -20 -20 -20 -19 -19 -18 -18 -18 -18 -18 -18 -17 -18 -18 -18 -17 -17 -17 -17 -17 -16
-18 -18 -18 -19 -18 -18 -18 -19 -19 -18 -18 -18 -19 -19 -19 -19 -19 -19 -19 -19 -19 -20 -20 -20 -20 -20 -20 -19 -19 -19 -18 -18 -18 -18 -18 -18 -17 -17 -17 -17 -17 -17 -16 -16
-18 -18 -18 -18 -18 -18 -19 -18 -18 -18 -17 -17 -18 -18 -18 -19 -19 -19 -19 -20 -20 -20 -20 -20 -20 -20 -20 -19 -19 -19 -19 -18 -18 -18 -18 -18 -18 -18 -17 -18 -17 -17 -16 -16
-18 -18 -19 -19 -19 -19 -19 -18 -18 -18 -18 -19 -20 -20 -20 -20 -20 -20 -19 -20 -20 -20 -20 -20 -20 -20 -20 -19 -20 -20 -19 -19 -18 -18 -18 -18 -18 -17 -17 -18 -17 -17 -17 -16
-19 -19 -19 -19 -19 -19 -18 -18 -18 -20 -21 -21 -21 -20 -23 -23 -22 -21 -21 -21 -22 -21 -21 -20 -20 -20 -20 -20 -20 -20 -19 -19 -19 -18 -18 -18 -18 -17 -17 -17 -17 -17 -17 -16
-20 -20 -20 -19 -19 -19 -19 -19 -20 -21 -20 -21 -21 -23 -24 -24 -24 -24 -23 -22 -23 -22 -21 -21 -21 -21 -20 -20 -20 -21 -20 -20 -19 -19 -19 -18 -18 -17 -17 -17 -17 -17 -17 -16
-20 -20 -20 -20 -19 -19 -20 -21 -21 -21 -20 -21 -22 -23 -24 -24 -24 -24 -24 -23 -23 -22 -22 -21 -21 -21 -21 -20 -21 -21 -21 -20 -20 -19 -19 -18 -18 -18 -17 -17 -17 -17 -16 -16
-21 -21 -21 -20 -20 -21 -21 -21 -21 -22 -21 -21 -22 -22 -23 -23 -23 -23 -22 -22 -22 -22 -22 -21 -21 -21 -20 -21 -22 -21 -21 -20 -20 -20 -19 -19 -18 -18 -17 -17 -17 -17 -17 -17
-21 -21 -21 -21 -21 -21 -21 -21 -22 -22 -21 -21 -22 -22 -22 -22 -23 -23 -22 -22 -22 -21 -21 -21 -21 -21 -21 -22 -21 -21 -21 -21 -20 -19 -19 -19 -18 -18 -18 -17 -17 -17 -17 -17
-21 -21 -21 -21 -22 -22 -22 -22 -22 -22 -22 -22 -21 -22 -22 -22 -22 -22 -22 -22 -22 -22 -22 -21 -21 -22 -22 -22 -22 -22 -21 -21 -20 -19 -19 -18 -18 -18 -18 -18 -17 -17 -17 -18
-22 -22 -21 -22 -22 -22 -22 -22 -22 -22 -22 -22 -21 -22 -22 -22 -22 -22 -22 -22 -22 -22 -22 -21 -21 -22 -22 -22 -22 -21 -21 -21 -20 -20 -19 -18 -18 -18 -18 -18 -18 -18 -18 -18
-23 -22 -22 -22 -22 -22 -22 -22 -22 -22 -22 -22 -22 -21 -22 -22 -22 -22 -22 -22 -22 -22 -21 -21 -21 -21 -21 -22 -22 -21 -21 -21 -21 -20 -19 -19 -19 -19 -19 -19 -18 -18 -18 -18
-23 -23 -23 -22 -22 -23 -22 -22 -23 -22 -22 -22 -22 -22 -22 -22 -21 -22 -22 -22 -22 -22 -22 -22 -21 -21 -21 -21 -22 -21 -21 -21 -21 -20 -20 -19 -19 -19 -19 -19 -19 -18 -18 -18
-25 -24 -23 -23 -22 -22 -22 -23 -23 -23 -22 -22 -22 -22 -22 -22 -22 -22 -21 -22 -22 -22 -22 -22 -22 -22 -22 -22 -22 -22 -21 -21 -21 -21 -20 -20 -19 -19 -19 -19 -19 -18 -18 -18
-25 -25 -24 -24 -23 -23 -23 -23 -23 -23 -23 -23 -22 -22 -22 -22 -22 -22 -22 -22 -22 -21 -21 -21 -21 -21 -21 -22 -22 -22 -22 -21 -21 -21 -21 -20 -20 -20 -20 -19 -19 -18 -18 -18
-26 -26 -25 -25 -24 -24 -23 -23 -23 -23 -23 -23 -23 -22 -22 -22 -22 -22 -22 -22 -22 -21 -21 -21 -21 -21 -21 -21 -22 -22 -22 -22 -22 -21 -21 -21 -21 -20 -20 -20 -20 -19 -19 -19

GFSNW_500_temp_033.txt.gz
Temp
-18 -18 -18 -18 -18 -19 -19 -19 -19 -19 -19 -18 -18 -19 -19 -19 -19 -19 -19 -19 -19 -19 -19 -19 -20 -20 -20 -20 -19 -19 -18 -18 -18 -18 -17 -17 -17 -17 -17 -17 -16 -16 -16 -16
-18 -18 -18 -18 -18 -18 -19 -19 -19 -19 -19 -19 -19 -18 -18 -19 -19 -19 -19 -19 -19 -19 -19 -19 -19 -19 -19 -19 -18 -18 -18 -18 -18 -18 -18 -17 -17 -17 -17 -17 -16 -16 -16 -15
-18 -18 -18 -18 -18 -18 -19 -19 -19 -19 -19 -20 -19 -19 -19 -19 -19 -19 -19 -19 -19 -19 -19 -19 -19 -19 -19 -18 -18 -18 -18 -18 -18 -18 -18 -17 -17 -17 -17 -17 -17 -16 -16 -15
-17 -17 -17 -17 -18 -18 -18 -19 -19 -19 -19 -19 -19 -19 -19 -19 -19 -18 -18 -18 -19 -19 -19 -19 -19 -18 -18 -18 -18 -18 -18 -18 -18 -18 -17 -17 -17 -17 -17 -17 -17 -16 -16 -16
-16 -17 -17 -18 -18 -18 -18 -18 -18 -19 -19 -19 -19 -19 -19 -19 -19 -19 -19 -19 -18 -19 -19 -18 -18 -18 -18 -18 -18 -18 -18 -18 -17 -17 -17 -17 -17 -17 -17 -17 -16 -16 -16 -16
-17 -17 -17 -17 -18 -18 -18 -18 -18 -18 -19 -19 -19 -19 -20 -20 -19 -19 -19 -19 -19 -19 -19 -18 -18 -18 -18 -18 -18 -18 -18 -17 -17 -17 -17 -17 -17 -17 -17 -17 -16 -16 -16 -16
-18 -18 -18 -18 -18 -18 -18 -18 -18 -18 -18 -19 -19 -19 -19 -20 -20 -20 -19 -19 -19 -19 -19 -19 -18 -18 -18 -18 -18 -18 -18 -17 -17 -17 -17 -17 -17 -17 -17 -17 -17 -16 -16 -16
-18 -19 -19 -18 -18 -18 -18 -19 -18 -18 -18 -18 -18 -19 -19 -19 -19 -20 -20 -20 -19 -19 -19 -19 -19 -19 -19 -18 -18 -18 -18 -18 -17 -17 -17 -17 -17 -17 -17 -17 -17 -16 -16 -16
-18 -20 -20 -18 -18 -18 -18 -19 -19 -19 -19 -18 -18 -18 -19 -19 -19 -19 -19 -20 -20 -19 -19 -19 -19 -19 -19 -19 -18 -18 -18 -18 -17 -17 -17 -17 -17 -17 -17 -17 -17 -17 -16 -16
-19 -20 -20 -19 -18 -18 -18 -18 -19 -19 -19 -19 -19 -19 -19 -19 -19 -19 -19 -19 -19 -19 -19 -19 -19 -19 -19 -19 -19 -19 -18 -18 -18 -17 -17 -18 -18 -18 -17 -17 -17 -17 -17 -16
-20 -20 -20 -20 -19 -18 -18 -18 -18 -19 -19 -19 -19 -19 -19 -19 -19 -19 -19 -19 -19 -19 -19 -20 -19 -19 -19 -19 -19 -19 -19 -18 -18 -18 -18 -18 -18 -18 -18 -18 -17 -17 -17 -16
-20 -19 -20 -19 -19 -18 -18 -18 -18 -18 -18 -19 -19 -19 -19 -19 -19 -19 -19 -19 -19 -19 -19 -19 -20 -20 -19 -19 -19 -19 -19 -19 -18 -18 -18 -18 -18 -18 -18 -18 -17 -17 -17 -16
-20 -19 -19 -19 -19 -18 -18 -18 -18 -18 -18 -19 -19 -19 -19 -19 -19 -19 -19 -19 -19 -19 -19 -19 -19 -20 -20 -20 -19 -19 -19 -19 -19 -18 -18 -18 -18 -18 -18 -18 -18 -17 -17 -17
-20 -20 -19 -19 -19 -18 -19 -19 -19 -19 -18 -19 -19 -19 -19 -19 -20 -19 -19 -20 -20 -20 -20 -19 -19 -20 -20 -20 -20 -20 -19 -19 -19 -19 -19 -18 -18 -18 -18 -18 -18 -17 -17 -17
-20 -20 -20 -19 -19 -19 -19 -19 -19 -19 -19 -19 -20 -19 -20 -20 -20 -20 -21 -21 -21 -20 -20 -20 -19 -20 -20 -20 -20 -20 -20 -19 -19 -19 -19 -18 -18 -18 -18 -18 -18 -17 -17 -17
-21 -21 -20 -20 -20 -19 -19 -19 -19 -20 -20 -21 -21 -21 -22 -21 -21 -23 -23 -22 -21 -21 -21 -21 -20 -20 -20 -20 -20 -20 -20 -20 -20 -19 -19 -19 -19 -18 -18 -18 -18 -18 -17 -17
-21 -21 -21 -20 -20 -20 -20 -20 -20 -21 -21 -21 -21 -21 -22 -22 -24 -25 -24 -24 -23 -23 -22 -21 -22 -20 -20 -20 -20 -21 -20 -20 -20 -20 -20 -19 -19 -19 -18 -18 -18 -18 -17 -17
-21 -21 -21 -20 -20 -21 -21 -21 -21 -21 -21 -21 -21 -22 -23 -23 -24 -25 -25 -25 -24 -23 -23 -22 -22 -21 -20 -20 -21 -21 -21 -20 -20 -20 -20 -20 -19 -19 -18 -18 -18 -17 -17 -17
-22 -21 -21 -20 -21 -21 -21 -21 -21 -21 -22 -21 -21 -22 -23 -23 -23 -24 -24 -24 -22 -22 -22 -22 -22 -21 -20 -21 -21 -21 -21 -21 -21 -21 -20 -20 -20 -19 -19 -18 -18 -17 -17 -17
-22 -22 -21 -21 -22 -22 -22 -22 -22 -22 -22 -22 -21 -22 -22 -23 -23 -23 -22 -23 -23 -22 -22 -22 -21 -21 -21 -21 -22 -22 -21 -21 -21 -21 -20 -20 -20 -19 -19 -18 -18 -18 -17 -17
-23 -22 -22 -21 -22 -23 -22 -22 -22 -22 -22 -22 -22 -22 -22 -23 -22 -23 -22 -23 -22 -22 -22 -21 -21 -22 -22 -22 -22 -22 -22 -21 -21 -21 -21 -20 -19 -19 -19 -18 -18 -18 -17 -18
-23 -23 -22 -22 -22 -23 -23 -23 -22 -22 -22 -22 -22 -22 -22 -22 -22 -22 -22 -22 -22 -22 -22 -21 -22 -22 -22 -22 -21 -21 -21 -21 -21 -21 -21 -20 -20 -19 -19 -18 -18 -18 -18 -18
-25 -24 -23 -23 -22 -23 -23 -23 -23 -22 -22 -22 -22 -22 -22 -22 -22 -22 -22 -22 -22 -22 -22 -22 -22 -21 -21 -22 -21 -22 -22 -22 -22 -21 -21 -20 -20 -19 -19 -19 -19 -19 -18 -18
-25 -25 -24 -24 -23 -23 -23 -23 -23 -23 -22 -22 -22 -22 -22 -22 -22 -22 -22 -22 -22 -22 -22 -22 -21 -21 -21 -21 -22 -22 -22 -22 -22 -21 -21 -20 -20 -20 -19 -19 -19 -19 -19 -19
-26 -26 -25 -25 -24 -24 -24 -23 -23 -23 -23 -23 -23 -22 -23 -22 -22 -22 -22 -22 -22 -22 -22 -22 -22 -22 -22 -22 -22 -22 -22 -22 -22 -21 -21 -21 -20 -20 -20 -20 -19 -19 -19 -19
-27 -26 -26 -26 -25 -25 -24 -24 -23 -23 -23 -23 -23 -23 -23 -22 -22 -22 -22 -22 -22 -22 -22 -22 -22 -22 -22 -22 -22 -22 -22 -22 -22 -22 -21 -21 -21 -20 -20 -20 -20 -20 -19 -19
-27 -27 -26 -26 -26 -25 -25 -25 -24 -23 -23 -24 -23 -23 -23 -22 -22 -22 -22 -22 -22 -22 -22 -22 -22 -22 -22 -22 -22 -22 -22 -22 -22 -22 -22 -21 -21 -21 -21 -21 -20 -20 -20 -20